Taganrog Yuzhny Airport

Jump to: basic info | weather | comments

Related pages: nearby airports | nearby navaids | notams | map

Basic information (top)

Codes: TGK URRT
Location: lon 47.200001, lat 38.849998, elev 118 ft / 36 m msl
Status: medium_airport

Weather (top)

Current conditions for Rostov-na-Donu Airport 40nm (73km) E (rec'd 2014/10/02 12:00Z):

URRR 021200Z 35004MPS 300V040 CAVOK 12/M03 Q1029 04CLRD70 NOSIG

Airport forecast for Rostov-na-Donu Airport 40nm (73km) E (rec'd 2014/10/02 12:00Z):

TAF URRR 021101Z 0212/0312 35006G11MPS CAVOK 
      BECMG 0215/0217 02006MPS 
      TEMPO 0218/0303 VRB02MPS 3000 BR SCT010

Latest comments (top)

dgs: gsdg [read]

More... (top)

See also NOTAMs and nearby airports and navaids, or visit the Taganrog Yuzhny Airport page at the main OurAirports website..